ROMMA est une association bénévole à but non lucratif. Votre soutien est indispensable : ADHERER à ROMMA ou FAIRE un DON

Challes-les-Eaux - (73, Savoie)

Cluse de Chambéry (325 m)   Longitude: 05° 58' E   Latitude: 45° 32' N Station romma n°148
 

Détail journalier du     <<     >>

Température Precipitation Humidité Pression Vent Dir Rafale Dir. rafale
Heure (°C) (mm) (%) (hPa) (km/h) (km/h)
01:00 8.609010221N5N
02:00 7.909210221ONO5ONO
03:00 8.009310211SO6OSO
04:00 7.3092102203SO
05:00 7.4094102106SO
06:00 6.909210211SSO3SSO
07:00 7.309410211SSO10ESE
08:00 7.409210212ESE10SSE
09:00 7.709210212ESE11ESE
10:00 11.508210213SE13ESE
11:00 13.207210205ESE16E
12:00 15.606510205SE18SSE
13:00 17.206210194SE16ESE
14:00 19.505910182ONO10SSE
15:00 20.705110172OSO8OSO
16:00 20.605510172SE11SSE
17:00 21.904910172SSO6S
18:00 21.705410162S6S
19:00 17.706510171S5SSO
20:00 16.906510171S6S
21:00 16.407210172S6S
22:00 16.107610173SSE10ESE
23:00 16.207610172ESE8ESE
minuit 16.007710172ESE11ESE

Graphique du 08-10-2019

 

Serveur OMMA